Location: ????????
(55.5667°N, 37.5833°E)
Time: 07:18:25
(UTC+00:00)

ARIANE 5 R/B - Pass Details

Date: 14 April 2026
Orbit: 614 x 648 km, 98.0° (Epoch: 14 September)

Event Time Altitude Azimuth Distance (km) Brightness Sun altitude
Exits shadow 20:26:44 80° 107° (ESE) 636 2.4 -23.5°
Maximum altitude 20:26:53 81° 73° (ENE) 633 2.5 -23.5°
Drops below altitude 10° 20:31:14 10° 346° (NNW) 2,005 6.3 -23.6°
Sets 20:33:27 0° 346° (NNW) 2,921 7.5 -23.7°
